Stevens Pass
Stevens Pass Ski Area - Brooks Chair
Latest observation 09/01 16:00 PDT
| Time (PDT) | Temp °F 4800' | RH % 4800' | Pcp1 in 4800' | PcpSum in 4800' | 24Sno in 4800' | SnoHt in 4800' |
|---|---|---|---|---|---|---|
| 09/01 16:00 | 53 | 88 | 0.00 | 0.00 | 100.0 | -7999.0 |
| 09/01 15:00 | 56 | 76 | 0.00 | 0.00 | 96.2 | -7999.0 |
| 09/01 14:00 | 54 | 83 | 0.00 | 0.00 | 99.8 | -7999.0 |
| 09/01 13:00 | 57 | 69 | 0.00 | 0.00 | 102.2 | -7999.0 |
| 09/01 12:00 | 58 | 65 | 0.00 | 0.00 | 105.8 | -7999.0 |
| 09/01 11:00 | 60 | 62 | 0.00 | 0.00 | 110.9 | -7999.0 |
| 09/01 10:00 | 58 | 59 | 0.00 | 0.00 | 98.4 | -7999.0 |
| 09/01 09:00 | 55 | 67 | 0.00 | 0.00 | 83.7 | -7999.0 |
| 09/01 08:00 | 53 | 66 | 0.00 | 0.00 | 78.8 | -7999.0 |
| 09/01 07:00 | 50 | 65 | 0.00 | 0.00 | 89.9 | -7999.0 |
| 09/01 06:00 | 52 | 57 | 0.00 | 0.00 | 87.7 | -7999.0 |
| 09/01 05:00 | 53 | 52 | 0.00 | 0.00 | 91.2 | -7999.0 |
| 09/01 04:00 | 54 | 51 | 0.00 | 0.00 | 95.6 | -7999.0 |
| 09/01 03:00 | 60 | 39 | 0.00 | 0.00 | 88.2 | -7999.0 |
| 09/01 02:00 | 61 | 37 | 0.00 | 0.00 | 78.9 | -7999.0 |
| 09/01 01:00 | 56 | 48 | 0.00 | 0.00 | 87.1 | -7999.0 |
| 09/01 00:00 | 56 | 53 | 0.00 | 0.00 | 87.5 | -7999.0 |
| 08/31 23:00 | 58 | 46 | 0.00 | 0.00 | 80.6 | -7999.0 |
| 08/31 22:00 | 56 | 54 | 0.00 | 0.00 | 88.1 | -7999.0 |
| 08/31 21:00 | 57 | 52 | 0.00 | 0.00 | 86.6 | -7999.0 |
| 08/31 20:00 | 56 | 60 | 0.00 | 0.00 | 102.6 | -7999.0 |
| 08/31 19:00 | 61 | 48 | 0.00 | 0.00 | 105.0 | -7999.0 |
| 08/31 18:00 | 65 | 42 | 0.00 | 0.00 | 116.3 | -7999.0 |
| 08/31 17:00 | 67 | 40 | 0.00 | 0.00 | 119.9 | -7999.0 |

